Vancouver, WA
on Monday, November 12, 2012

Monday
Previous Day Next Day
Daily Summary
 ActualAverageRecord
Temperature
Mean Temperature °F 47°F  
Max Temperature 53°F 54°F 64°F (1999)
Min Temperature 44°F 41°F 20°F (1955)
Degree Days
Heating Degree Days 16    
Month to date heating degree days 169  
Since 1 July heating degree days 488  
Cooling Degree Days 0    
Month to date cooling degree days 0  
Year to date cooling degree days 398  
Moisture
Dew Point 45°F   
Average Humidity 85    
Maximum Humidity 93    
Minimum Humidity 77    
Precipitation
Precipitation 0.45 in 0.20 in 1.09 in (1981)
Month to date precipitation 1.36 2.16  
Year to date precipitation 32.52 28.62  
Snow
Snow 0.00 in in in ()
Month to date snowfall 0.0  
Snow Depth 0.00 in   
Wind
Wind Speed 6 mph   
Max Wind Speed 15 mph   
Max Gust Speed 21 mph   
Visibility 9 miles   
Events Rain   

Key: T is trace of precipitation, MM is missing value
Source: NWS Daily Summary
Time(PST)TemperatureDew PointHumidity Pressure Visibility Wind DirectionWind SpeedGust SpeedPrecipitationEvents Conditions
12:53 AM 45.0°F 42.1°F 90% 30.17 in 8.0 miles ESE 11.5 mph - 0.05 in Rain Light Rain
1:53 AM 45.0°F 42.1°F 90% 30.17 in 10.0 miles ESE 10.4 mph - 0.04 in Rain Light Rain
2:53 AM 45.0°F 43.0°F 93% 30.17 in 7.0 miles SE 8.1 mph - 0.08 in Rain Rain
3:53 AM 45.0°F 42.1°F 90% 30.16 in 7.0 miles SE 10.4 mph - 0.06 in Rain Light Rain
4:40 AM 44.6°F 42.8°F 93% 30.17 in 6.0 miles ESE 5.8 mph - 0.04 in Rain Rain
4:53 AM 45.0°F 43.0°F 93% 30.17 in 5.0 miles ESE 8.1 mph - 0.07 in Rain Rain
5:53 AM 45.0°F 43.0°F 93% 30.17 in 6.0 miles SE 10.4 mph - 0.09 in Rain Light Rain
6:15 AM 44.6°F 42.8°F 93% 30.17 in 9.0 miles SE 6.9 mph - 0.00 in Rain Light Rain
6:35 AM 44.6°F 42.8°F 93% 30.17 in 4.0 miles SE 8.1 mph - 0.02 in Rain Light Rain
6:43 AM 44.6°F 42.8°F 93% 30.17 in 4.0 miles SE 8.1 mph - 0.02 in Rain Light Rain
6:53 AM 44.1°F 42.1°F 93% 30.17 in 3.0 miles ESE 9.2 mph - 0.03 in Rain Light Rain
7:53 AM 45.0°F 43.0°F 93% 30.18 in 10.0 miles ESE 8.1 mph - 0.03 in Rain Light Rain
8:53 AM 46.0°F 43.0°F 89% 30.18 in 10.0 miles SE 9.2 mph - 0.00 in   Overcast
9:18 AM 46.4°F 44.6°F 93% 30.18 in 10.0 miles ESE 4.6 mph - N/A   Overcast
9:46 AM 48.2°F 44.6°F 87% 30.18 in 10.0 miles SE 3.5 mph - N/A   Overcast
9:53 AM 48.9°F 45.0°F 86% 30.19 in 10.0 miles SE 5.8 mph - N/A   Overcast
10:53 AM 50.0°F 46.0°F 86% 30.19 in 10.0 miles SE 3.5 mph - 0.00 in   Overcast
11:53 AM 52.0°F 46.0°F 80% 30.19 in 10.0 miles SSE 4.6 mph - N/A   Overcast
12:53 PM 53.1°F 46.0°F 77% 30.19 in 10.0 miles SSW 5.8 mph - N/A   Overcast
1:53 PM 53.1°F 46.9°F 80% 30.20 in 10.0 miles SW 6.9 mph - N/A   Overcast
2:53 PM 52.0°F 46.9°F 83% 30.19 in 10.0 miles SE 6.9 mph - N/A   Overcast
3:11 PM 50.0°F 46.4°F 87% 30.19 in 10.0 miles ESE 4.6 mph - N/A   Overcast
3:53 PM 48.9°F 46.0°F 90% 30.21 in 10.0 miles ESE 5.8 mph - 0.00 in Rain Light Rain
5:53 PM 48.9°F 46.9°F 93% 30.21 in 10.0 miles ESE 5.8 mph - N/A   Overcast
6:07 PM 48.2°F 46.4°F 93% 30.22 in 10.0 miles ESE 4.6 mph - N/A   Overcast
6:40 PM 48.2°F 46.4°F 93% 30.22 in 9.0 miles Calm Calm - 0.00 in Rain Light Rain
6:53 PM 48.9°F 46.9°F 93% 30.22 in 10.0 miles Calm Calm - 0.00 in   Overcast
7:06 PM 48.2°F 46.4°F 93% 30.22 in 10.0 miles Calm Calm - N/A   Overcast
7:53 PM 48.9°F 46.9°F 93% 30.23 in 10.0 miles ESE 3.5 mph - N/A   Overcast
8:53 PM 48.9°F 46.9°F 93% 30.24 in 10.0 miles Calm Calm - N/A   Overcast
9:31 PM 48.2°F 46.4°F 93% 30.24 in 10.0 miles Calm Calm - N/A   Overcast
9:53 PM 48.9°F 46.9°F 93% 30.25 in 10.0 miles ESE 3.5 mph - N/A   Overcast
10:53 PM 50.0°F 46.9°F 89% 30.26 in 10.0 miles East 3.5 mph - N/A   Overcast
11:04 PM 48.2°F 46.4°F 93% 30.25 in 10.0 miles ESE 5.8 mph - N/A   Overcast
11:35 PM 50.0°F 48.2°F 94% 30.26 in 10.0 miles East 3.5 mph - N/A   Overcast
11:53 PM 50.0°F 48.0°F 93% 30.26 in 10.0 miles ESE 3.5 mph - N/A   Overcast
Moon Phase
Nov. 12 Nov. 13 Nov. 20 Nov. 28 Dec. 06
Sunrise:07:06 AM (PST) Moon Rise:05:36 AM (PST)11/12
Sunset:04:42 PM (PST) Moon Set:03:52 PM (PST)11/12

Copyright © 2014 The Weather Underground, Inc.